Orbital Elements at Epoch 2457800.5 (2017-Feb-16.0) TDB
Reference: JPL 24 (heliocentric ecliptic J2000)
Element | Value | Uncertainty (1-sigma) | Units |
e | .279501204981309 | 9.3987e-06 | |
a | 4.251094622445314 | 8.3396e-05 | au |
q | 3.062908552982286 | 2.9457e-05 | au |
i | 2.077422134958702 | 7.9182e-05 | deg |
node | 291.7635108763762 | 0.0010745 | deg |
peri | 35.76741687756649 | 0.0016465 | deg |
M | 10.06525307069106 | 0.00027431 | deg |
tp | 2457710.989953534161 (2016-Nov-18.48995353) | 0.0041803 | TDB |
period | 3201.471090829674 8.77 | 0.094207 0.0002579 | d yr |
n | .1124483057276974 | 3.3089e-06 | deg/d |
Q | 5.439280691908342 | 0.00010671 | au |
|
Additional Model Parameters
Parameter | Value | Uncertainty (1-sigma) |
A1 [EST] | -2.108237798868988E-9 | 2.317E-9 |
A2 [EST] | -7.12131188860946E-10 | 8.806E-10 |
A3 [EST] | -7.125725277254861E-9 | 4.233E-10 |
ALN [SET] | .0408373333128795 | n/a |
DT [EST] | -418.5270143176429 | 32.19 |
NK [SET] | 2.6 | n/a |
NM [SET] | 2. | n/a |
NN [SET] | 3. | n/a |
R0 [SET] | 5. | n/a |
|
| | Orbit Determination Parameters
Additional Information
|